KG5APU Weather Reports


time (UTC)temp
F
wind
direction
speed
knots
gust
knots
rain 1hr
in
rain 24hr
in
rain mn
in
humidity
%
barometer
mb
20220629040917 78 63 1.7 2.6 0.00 0.00 0.00 58 1022.6
20220629035917 78 7 2.6 4.3 0.00 0.00 0.00 58 1022.7
20220629034918 79 153 0.0 0.9 0.00 0.00 0.00 58 1022.4
20220629033918 79 111 0.9 1.7 0.00 0.00 0.00 56 1022.2
20220629032918 80 336 2.6 6.1 0.00 0.00 0.00 56 1022.2
20220629031918 80 76 1.7 1.7 0.00 0.00 0.00 55 1022.2
20220629030918 80 96 0.9 1.7 0.00 0.00 0.00 55 1022.0
20220629025917 80 68 1.7 1.7 0.00 0.00 0.00 57 1021.9
20220629024916 80 140 0.0 0.9 0.00 0.00 0.00 54 1021.7
20220629023917 80 68 1.7 1.7 0.00 0.00 0.00 56 1021.8
20220629022915 81 17 3.5 5.2 0.00 0.00 0.00 53 1021.5
20220629021916 81 131 1.7 2.6 0.00 0.00 0.00 52 1021.6
20220629020916 81 39 2.6 5.2 0.00 0.00 0.00 50 1021.3
20220629015916 82 58 2.6 4.3 0.00 0.00 0.00 49 1021.5
20220629014915 82 0 2.6 2.6 0.00 0.00 0.00 48 1021.2
20220629013914 83 10 4.3 5.2 0.00 0.00 0.00 47 1021.2
20220629012912 83 72 2.6 4.3 0.00 0.00 0.00 47 1021.2
20220629011912 84 120 0.9 0.9 0.00 0.00 0.00 46 1021.1
20220629010911 84 22 2.6 4.3 0.00 0.00 0.00 46 1020.7
20220629005910 84 40 2.6 4.3 0.00 0.00 0.00 44 1020.9
20220629004909 85 301 2.6 5.2 0.00 0.00 0.00 44 1020.9
20220629003908 86 96 4.3 5.2 0.00 0.00 0.00 42 1020.6
20220629002908 87 13 1.7 4.3 0.00 0.00 0.00 38 1020.7
20220629001907 88 68 1.7 2.6 0.00 0.00 0.00 31 1020.6
20220629000906 89 31 2.6 4.3 0.00 0.00 0.00 30 1020.5
20220628235906 89 102 2.6 4.3 0.00 0.00 0.00 31 1020.4
20220628234905 89 83 1.7 2.6 0.00 0.00 0.00 30 1020.4
20220628233905 89 125 0.9 1.7 0.00 0.00 0.00 30 1020.5
20220628232905 89 71 2.6 5.2 0.00 0.00 0.00 31 1020.6
20220628231903 89 69 1.7 1.7 0.00 0.00 0.00 29 1020.4
20220628230904 90 93 2.6 2.6 0.00 0.00 0.00 33 1020.8
20220628225902 89 89 2.6 4.3 0.00 0.00 0.00 31 1020.9
20220628224901 88 76 1.7 1.7 0.00 0.00 0.00 32 1020.9
20220628223900 89 74 2.6 2.6 0.00 0.00 0.00 31 1021.1
20220628222858 89 92 1.7 1.7 0.00 0.00 0.00 34 1021.4
20220628221859 89 75 2.6 4.3 0.00 0.00 0.00 34 1021.7
20220628220858 89 97 2.6 2.6 0.00 0.00 0.00 31 1021.5
20220628215857 89 106 2.6 2.6 0.00 0.00 0.00 31 1021.7
20220628214855 89 24 3.5 5.2 0.00 0.00 0.00 31 1022.0
20220628213855 90 322 2.6 4.3 0.00 0.00 0.00 31 1022.0
20220628212854 90 12 2.6 2.6 0.00 0.00 0.00 31 1022.1
20220628211854 91 89 1.7 2.6 0.00 0.00 0.00 30 1022.2
20220628210852 91 228 3.5 5.2 0.00 0.00 0.00 33 1022.3
20220628205853 89 78 4.3 5.2 0.00 0.00 0.00 32 1022.6
20220628204851 89 15 4.3 6.1 0.00 0.00 0.00 32 1022.8
20220628203852 90 172 0.9 0.9 0.00 0.00 0.00 34 1022.7
20220628202850 89 79 0.9 1.7 0.00 0.00 0.00 35 1022.9
20220628201849 88 83 2.6 4.3 0.00 0.00 0.00 37 1023.2
20220628200849 88 42 1.7 2.6 0.00 0.00 0.00 36 1023.3
20220628195850 90 47 1.7 5.2 0.00 0.00 0.00 36 1023.3
20220628194849 89 26 3.5 4.3 0.00 0.00 0.00 35 1023.3
20220628193848 89 47 1.7 1.7 0.00 0.00 0.00 37 1023.7
20220628192847 89 68 0.9 1.7 0.00 0.00 0.00 36 1023.5
20220628191845 88 34 2.6 2.6 0.00 0.00 0.00 35 1023.6
20220628190845 88 134 0.9 1.7 0.00 0.00 0.00 37 1023.8
20220628185846 87 39 2.6 4.3 0.00 0.00 0.00 35 1023.8
20220628184844 87 147 2.6 2.6 0.00 0.00 0.00 34 1024.0
20220628183843 87 104 3.5 5.2 0.00 0.00 0.00 35 1024.0
20220628182843 88 36 3.5 5.2 0.00 0.00 0.00 34 1024.4
20220628181842 87 61 3.5 5.2 0.00 0.00 0.00 35 1024.2
20220628180842 87 41 4.3 7.0 0.00 0.00 0.00 33 1024.6
20220628175842 86 25 5.2 6.1 0.00 0.00 0.00 38 1024.9
20220628174840 86 64 2.6 4.3 0.00 0.00 0.00 39 1024.9
20220628173840 86 89 2.6 4.3 0.00 0.00 0.00 40 1024.6
20220628172839 86 55 5.2 7.8 0.00 0.00 0.00 40 1024.9
20220628171837 86 81 6.1 7.8 0.00 0.00 0.00 39 1024.9
20220628170836 86 58 3.5 5.2 0.00 0.00 0.00 39 1025.0
20220628165836 85 162 3.5 5.2 0.00 0.00 0.00 39 1024.9
20220628164834 85 81 2.6 4.3 0.00 0.00 0.00 40 1024.9
20220628163834 84 66 3.5 5.2 0.00 0.00 0.00 40 1025.2
20220628162833 85 43 6.1 8.7 0.00 0.00 0.00 40 1025.0
20220628161833 84 126 2.6 2.6 0.00 0.00 0.00 42 1024.9
20220628160833 84 75 5.2 6.1 0.00 0.00 0.00 40 1024.6
20220628155831 83 74 1.7 2.6 0.00 0.00 0.00 44 1025.0
20220628154830 84 76 4.3 7.8 0.00 0.00 0.00 42 1025.1
20220628153830 82 144 2.6 4.3 0.00 0.00 0.00 43 1025.1
20220628152830 82 11 4.3 6.1 0.00 0.00 0.00 42 1024.7
20220628151831 83 79 2.6 4.3 0.00 0.00 0.00 42 1024.9
20220628150829 82 91 4.3 5.2 0.00 0.00 0.00 43 1024.7
20220628145828 82 82 2.6 5.2 0.00 0.00 0.00 44 1025.0
20220628144826 81 52 1.7 2.6 0.00 0.00 0.00 48 1024.7
20220628143825 80 83 3.5 5.2 0.00 0.00 0.00 47 1024.6
20220628142826 80 114 2.6 2.6 0.00 0.00 0.00 51 1024.7
20220628141826 80 138 0.0 0.9 0.00 0.00 0.00 52 1024.9
20220628140825 79 88 2.6 4.3 0.00 0.00 0.00 54 1024.6
20220628135824 79 81 1.7 2.6 0.00 0.00 0.00 55 1024.3
20220628134824 78 102 2.6 4.3 0.00 0.00 0.00 57 1024.6
20220628133824 77 105 3.5 4.3 0.00 0.00 0.00 61 1024.4
20220628132823 76 57 0.9 1.7 0.00 0.00 0.00 60 1024.6
20220628131823 77 87 0.9 0.9 0.00 0.00 0.00 62 1024.4
20220628130823 75 72 0.9 1.7 0.00 0.00 0.00 69 1024.3
20220628125821 74 67 0.9 0.9 0.00 0.00 0.00 71 1024.3
20220628124822 75 63 2.6 2.6 0.00 0.00 0.00 70 1024.5
20220628123820 74 131 0.9 0.9 0.00 0.00 0.00 71 1024.3
20220628122819 74 51 1.7 1.7 0.00 0.00 0.00 71 1024.0
20220628121818 73 10 2.6 2.6 0.00 0.00 0.00 74 1024.2
20220628120816 73 143 0.0 0.9 0.00 0.00 0.00 75 1024.1
20220628115815 72 121 0.0 0.0 0.00 0.00 0.00 77 1024.2
20220628114813 71 90 0.0 0.9 0.00 0.00 0.00 78 1024.0
20220628113814 71 141 0.0 0.0 0.00 0.00 0.00 79 1023.9
20220628112813 71 121 0.0 0.0 0.00 0.00 0.00 77 1023.8
20220628111813 70 109 0.0 0.9 0.00 0.00 0.00 78 1023.7
20220628110812 70 139 0.9 0.9 0.00 0.00 0.00 78 1023.5
20220628105810 71 136 0.9 0.9 0.00 0.00 0.00 77 1023.4
20220628104809 71 146 0.0 0.0 0.00 0.00 0.00 75 1023.5
20220628103809 71 139 0.0 0.9 0.00 0.00 0.00 76 1023.6
20220628102809 71 138 0.0 0.0 0.00 0.00 0.00 75 1023.5
20220628101807 72 116 0.9 0.9 0.00 0.00 0.00 73 1023.5
20220628100807 73 144 0.0 0.0 0.00 0.00 0.00 71 1023.5
20220628095806 73 141 0.0 0.0 0.00 0.00 0.00 72 1023.6
20220628094805 74 134 0.9 1.7 0.00 0.00 0.00 72 1023.3
20220628093805 73 106 0.9 0.9 0.00 0.00 0.00 76 1023.2
20220628092804 73 128 0.9 1.7 0.00 0.00 0.00 74 1023.4
20220628091803 74 126 0.9 0.9 0.00 0.00 0.00 73 1023.1
20220628090803 74 78 0.9 1.7 0.00 0.00 0.00 73 1023.1
20220628085803 74 79 1.7 4.3 0.00 0.00 0.00 72 1022.9
20220628084801 74 94 0.0 0.9 0.00 0.00 0.00 72 1023.0
20220628083800 74 74 2.6 2.6 0.00 0.00 0.00 72 1023.0
20220628082759 75 113 0.9 1.7 0.00 0.00 0.00 71 1022.7
20220628081759 75 144 2.6 4.3 0.00 0.00 0.00 71 1022.9
20220628080757 75 70 0.9 1.7 0.00 0.00 0.00 71 1022.9
20220628075756 75 166 2.6 2.6 0.00 0.00 0.00 71 1023.1
20220628074756 75 111 1.7 2.6 0.00 0.00 0.00 71 1023.0
20220628073754 76 87 3.5 5.2 0.00 0.00 0.00 71 1023.0
20220628072753 76 82 3.5 6.1 0.00 0.00 0.00 70 1023.4
20220628071752 76 145 0.9 1.7 0.00 0.00 0.00 70 1023.4
20220628070750 76 104 2.6 4.3 0.00 0.00 0.00 70 1023.3
20220628065750 77 66 4.3 6.1 0.00 0.00 0.00 69 1023.5
20220628064748 77 137 0.9 0.9 0.00 0.00 0.00 70 1023.0
20220628063748 77 96 4.3 5.2 0.00 0.00 0.00 68 1023.0
20220628062747 78 53 2.6 5.2 0.00 0.00 0.00 68 1023.3
20220628061747 78 168 1.7 1.7 0.00 0.00 0.00 69 1023.2
20220628060746 78 125 2.6 2.6 0.00 0.00 0.00 69 1023.4
20220628055746 78 102 2.6 2.6 0.00 0.00 0.00 70 1023.5
20220628054746 78 145 0.9 1.7 0.00 0.00 0.00 69 1023.5
20220628053746 78 80 1.7 1.7 0.00 0.00 0.00 69 1023.4
20220628052745 78 146 2.6 2.6 0.00 0.00 0.00 71 1023.5
20220628051745 79 82 2.6 2.6 0.00 0.00 0.00 71 1023.5
20220628050743 79 147 0.9 1.7 0.00 0.00 0.00 70 1023.5
20220628045744 79 68 1.7 2.6 0.00 0.00 0.00 70 1023.6
20220628044743 79 13 1.7 2.6 0.00 0.00 0.00 70 1023.5
20220628043744 79 79 1.7 1.7 0.00 0.00 0.00 70 1023.5
20220628042743 80 103 0.9 1.7 0.00 0.00 0.00 69 1023.2
20220628041742 80 61 1.7 2.6 0.00 0.00 0.00 68 1023.3